DW5225 Weather Reports


time (UTC)temp
F
wind
direction
speed
knots
gust
knots
rain 1hr
in
rain 24hr
in
rain mn
in
humidity
%
barometer
mb
20260507040040 44 0 0.0 0.0 0.00 0.00 0.00 83 1011.8
20260507034546 44 0 0.0 0.0 0.00 0.00 0.00 83 1011.6
20260507033100 44 0 0.0 0.0 0.00 0.00 0.00 82 1011.6
20260507031542 44 0 0.0 0.0 0.00 0.00 0.00 82 1011.5
20260507030041 44 0 0.0 0.0 0.00 0.00 0.00 83 1011.6
20260507024551 44 0 0.0 0.0 0.00 0.00 0.00 82 1011.5
20260507023040 44 0 0.0 0.0 0.00 0.00 0.00 82 1011.5
20260507021538 44 0 0.0 0.0 0.00 0.00 0.00 81 1011.5
20260507020042 45 0 0.0 0.0 0.00 0.00 0.00 81 1011.3
20260507014540 45 0 0.0 0.0 0.00 0.00 0.00 81 1011.1
20260507013041 46 0 0.0 0.0 0.00 0.00 0.00 81 1011.1
20260507011541 45 0 0.0 0.0 0.00 0.00 0.00 81 1011.1
20260507010041 45 0 0.0 0.0 0.00 0.00 0.00 82 1011.1
20260507004536 45 0 0.0 0.0 0.00 0.00 0.00 81 1011.0
20260507003042 46 0 0.0 0.0 0.00 0.00 0.00 81 1010.9
20260507001604 46 0 0.0 0.0 0.00 0.00 0.00 80 1010.9
20260507000042 47 0 0.0 0.0 0.00 0.00 0.00 79 1010.9
20260506234549 47 0 0.0 0.0 0.00 0.00 0.00 77 1010.7
20260506233040 48 0 0.0 0.0 0.00 0.00 0.00 76 1010.8
20260506231538 48 0 0.0 0.0 0.00 0.00 0.00 74 1010.9
20260506230035 48 0 0.0 0.0 0.00 0.00 0.00 75 1010.8
20260506224600 48 0 0.0 0.0 0.00 0.00 0.00 75 1010.8
20260506223040 49 0 0.0 0.0 0.00 0.00 0.00 76 1010.9
20260506221541 49 0 0.0 0.0 0.00 0.00 0.00 77 1010.8
20260506220045 49 0 0.0 0.0 0.00 0.00 0.00 75 1010.8
20260506214538 50 0 0.0 0.0 0.00 0.00 0.00 74 1010.8
20260506213042 50 0 0.0 0.0 0.00 0.00 0.00 71 1010.6
20260506211550 51 0 0.0 0.0 0.00 0.00 0.00 69 1010.3
20260506210038 51 0 0.0 0.0 0.00 0.00 0.00 69 1010.1
20260506204540 51 0 0.0 0.0 0.00 0.00 0.00 69 1010.1
20260506203040 51 0 0.0 0.0 0.00 0.00 0.00 70 1009.7
20260506201540 51 0 0.0 0.0 0.00 0.00 0.00 68 1009.4
20260506200038 52 0 0.0 0.0 0.00 0.00 0.00 65 1009.1
20260506194538 52 0 0.0 0.0 0.00 0.00 0.00 63 1008.7
20260506193048 51 0 0.0 0.0 0.00 0.00 0.00 65 1008.7
20260506191542 52 0 0.0 0.0 0.00 0.00 0.00 64 1008.2
20260506190041 52 0 0.0 0.0 0.00 0.00 0.00 63 1007.8
20260506184538 53 0 0.0 0.0 0.00 0.00 0.00 62 1007.6
20260506183043 54 0 0.0 0.0 0.00 0.00 0.00 58 1007.4
20260506181557 55 0 0.0 0.0 0.00 0.00 0.00 56 1007.2
20260506180041 56 0 0.0 0.0 0.00 0.00 0.00 55 1007.0
20260506174538 57 0 0.0 0.0 0.00 0.00 0.00 53 1006.9
20260506173054 57 0 0.0 0.0 0.00 0.00 0.00 53 1006.8
20260506171536 57 0 0.0 0.0 0.00 0.00 0.00 52 1006.6
20260506170050 58 0 0.0 0.0 0.00 0.00 0.00 51 1006.6
20260506164542 59 0 0.0 0.0 0.00 0.00 0.00 49 1006.6
20260506163040 60 0 0.0 0.0 0.00 0.00 0.00 48 1006.2
20260506161539 59 0 0.0 0.0 0.00 0.00 0.00 49 1006.4
20260506160041 58 0 0.0 0.0 0.00 0.00 0.00 50 1006.4
20260506154548 59 0 0.0 0.0 0.00 0.00 0.00 49 1006.4
20260506153042 57 0 0.0 0.0 0.00 0.00 0.00 52 1006.4
20260506151544 57 0 0.0 0.0 0.00 0.00 0.00 51 1006.5
20260506150040 58 0 0.0 0.0 0.00 0.00 0.00 52 1006.1
20260506144544 58 0 0.0 0.0 0.00 0.00 0.00 52 1006.3
20260506143039 60 0 0.0 0.0 0.00 0.00 0.00 51 1006.2
20260506141541 60 0 0.0 0.0 0.00 0.00 0.00 49 1006.2
20260506140042 62 0 0.0 0.0 0.00 0.00 0.00 47 1006.1
20260506134541 60 0 0.0 0.0 0.00 0.00 0.00 49 1006.1
20260506133039 59 0 0.0 0.0 0.00 0.00 0.00 50 1006.4
20260506131555 59 0 0.0 0.0 0.00 0.00 0.00 51 1006.2
20260506130046 60 0 0.0 0.0 0.00 0.00 0.00 50 1006.0
20260506124535 59 0 0.0 0.0 0.00 0.00 0.00 54 1006.2
20260506123043 60 0 0.0 0.0 0.00 0.00 0.00 55 1006.2
20260506121542 59 0 0.0 0.0 0.00 0.00 0.00 54 1006.4
20260506120041 58 0 0.0 0.0 0.00 0.00 0.00 56 1006.4
20260506114534 59 0 0.0 0.0 0.00 0.00 0.00 53 1006.4
20260506113042 59 0 0.0 0.0 0.00 0.00 0.00 53 1006.2
20260506111540 58 0 0.0 0.0 0.00 0.00 0.00 55 1006.5
20260506110040 59 0 0.0 0.0 0.00 0.00 0.00 53 1006.9
20260506104547 59 0 0.0 0.0 0.00 0.00 0.00 52 1006.7
20260506103042 59 0 0.0 0.0 0.00 0.00 0.00 52 1006.8
20260506101536 58 0 0.0 0.0 0.00 0.00 0.00 54 1007.0
20260506100042 58 0 0.0 0.0 0.00 0.00 0.00 53 1007.4
20260506094551 57 0 0.0 0.0 0.00 0.00 0.00 54 1007.4
20260506093041 57 0 0.0 0.0 0.00 0.00 0.00 54 1007.3
20260506091541 58 0 0.0 0.0 0.00 0.00 0.00 50 1007.0
20260506090039 58 0 0.0 0.0 0.00 0.00 0.00 50 1006.7
20260506084539 57 0 0.0 0.0 0.00 0.00 0.00 51 1006.5
20260506083044 58 0 0.0 0.0 0.00 0.00 0.00 50 1006.5
20260506081543 57 0 0.0 0.0 0.00 0.00 0.00 53 1006.5
20260506073041 57 0 0.0 0.0 0.00 0.00 0.00 51 1006.9
20260506071547 57 0 0.0 0.0 0.00 0.00 0.00 51 1007.0
20260506061541 54 0 0.0 0.0 0.00 0.00 0.00 58 1007.8
20260506044543 52 0 0.0 0.0 0.00 0.00 0.00 66 1008.7
20260506043040 50 0 0.0 0.0 0.00 0.00 0.00 71 1008.9
20260506041547 49 0 0.0 0.0 0.00 0.00 0.00 72 1009.2